{"data":{"norad_id":61643,"epoch":"2026-05-25T02:27:57.932640Z","epoch_age_seconds":66067,"freshness":"FRESH","line1":"1 61643U 24191Y   26145.10275385  .00000806  00000+0  38792-4 0  9992","line2":"2 61643  43.0030  82.8854 0001117 271.7000  88.3724 15.27581682 89985","mean_motion":15.27581682,"eccentricity":0.0001117,"inclination_deg":43.003,"raan_deg":82.8854,"arg_perigee_deg":271.7,"mean_anomaly_deg":88.3724,"bstar":3.8792e-5,"rev_number":8998,"period_min":94.266644917781,"perigee_km":482.27766560683,"apogee_km":483.81045345553,"semimajor_km":6861.1810595312,"source":"CELESTRAK","updated_at":"2026-05-25T13:38:19.411423Z"}}